Regional Weather Roundup
Issued by NWS Charleston, SC

Current Version | Previous Version | Graphics & Text | Print | Product List | Glossary On
Versions: 1 2 3 4 5 6 7 8 9 10 11 12 13 14 15 16 17 18 19 20 21 22 23 24 25 26 27 28 29 30 31 32 33 34 35 36 37 38 39 40 41 42 43 44 45 46 47 48 49 50
000
ASUS42 KCHS 251112
RWRCHS

REGIONAL WEATHER ROUNDUP
NATIONAL WEATHER SERVICE CHARLESTON SC
600 AM EST SAT NOV 25 2017

NOTE: "FAIR" INDICATES FEW OR NO CLOUDS BELOW 12,000 FEET WITH NO
SIGNIFICANT WEATHER AND/OR OBSTRUCTIONS TO VISIBILITY.

NOT ALL STATIONS ARE QUALITY CONTROLLED. USE DATA WITH CAUTION...
ESPECIALLY DEWPOINT OBSERVATIONS.

SCZ027-030-031-034>040-042>050-251200-
...SOUTHEAST SOUTH CAROLINA...

CITY           SKY/WX    TMP DP  RH WIND       PRES   REMARKS
N CHARLESTON   CLEAR     38  36  92 W3        29.99R
WATERFRONT PRK   N/A     47  42  83 CALM      29.83R
JOHNS ISLAND   FAIR      39  37  93 CALM      29.99R
PINOPOLIS        N/A     46  43  87 VRB2      29.91R
MONCKS CORNER  FAIR      34  32  93 CALM      29.98S
SUMMERVILLE    FAIR      32  32 100 CALM      30.00S
BEAUFORT MCAS  CLEAR     38  37  97 CALM      30.00R
BEAUFORT ARPT  FAIR      41  39  93 CALM      29.99R
HILTON HEAD IS NOT AVBL
WALTERBORO     SUNNY     32  32 100 CALM      30.01R
ALLENDALE      FAIR      34  34 100 CALM      29.98S

...SOUTHERN MIDLANDS AND PEE DEE...

CITY           SKY/WX    TMP DP  RH WIND       PRES   REMARKS
GEORGETOWN     FAIR      34  34 100 CALM      29.98S
KINGSTREE      FAIR      32  30  93 CALM      29.98S
ORANGEBURG     CLOUDY    34  33  96 CALM      29.99R
BARNWELL         N/A     32  30  93 CALM      29.99S
AIKEN          FAIR      32  30  93 CALM      30.00S
MANNING        FAIR      32  32 100 MISG      29.98S
COLUMBIA       CLEAR     33  32  96 CALM      29.97S
SUMTER         CLOUDY    36  32  87 CALM      29.95S
FLORENCE       CLOUDY    31  29  92 CALM      29.97S
MYRTLE BEACH   CLEAR     41  35  79 NW3       29.97R
N MYRTLE BEACH CLEAR     40  35  83 CALM      29.95R

$$

GAZ063-065-086>088-099>101-113>116-118-119-134>141-150-251200-
...SOUTHEAST GEORGIA...

CITY           SKY/WX    TMP DP  RH WIND       PRES   REMARKS
SAVANNAH ARPT  CLEAR     37  36  96 W3        30.01R
HUNTER AAF     CLEAR     37  34  91 CALM      29.98R
FORT STEWART   CLOUDY    36  35  93 CALM      30.00R
STATESBORO     PTCLDY    34  34 100 CALM      30.00S
SYLVANIA       MOSUNNY   34  34 100 CALM      30.01R
CLAXTON        FAIR      33  33  98 CALM      30.01R

...CSRA...CENTRAL AND FAR SOUTHEAST GEORGIA...

CITY           SKY/WX    TMP DP  RH WIND       PRES   REMARKS
THOMSON        PTCLDY    33  31  95 CALM      30.02S
AUGUSTA-BUSH   FOG       32  31  96 CALM      29.99R VSB<1/4
AUGUSTA-DANIEL CLOUDY    41  38  89 CALM      29.98S
SWAINSBORO     FAIR      34  34 100 CALM      30.01R
VIDALIA        CLEAR     37  37 100 CALM      30.00S
EASTMAN        FAIR      34  29  82 CALM      30.03R
HAZLEHURST     FAIR      40  39  95 CALM      30.00R
ALMA           PTCLDY    38  36  92 CALM      30.00S FOG
WAYCROSS       CLEAR     40  37  91 CALM      30.02R
JESUP          FAIR      37  36  93 CALM      30.02R
BAXLEY         FAIR      34  34 100 CALM      30.01S
BRUNSWICK      FOG       37  36  93 CALM      30.01R VSB 1/2
SAINT SIMONS   CLEAR     43  43 100 CALM      30.00R

$$

SCZ027-028-034-036>038-045-046-048>050-GAZ119-141-251200-
...LAKE AND SUPPLEMENTAL COASTAL OBSERVATIONS...

STATION/POSITION TIME  TEMP    WIND        PRES    WAVE   SWELL
                       AIR SEA DIR/SP/G            HT/PER HT/PER/DIR
                 (UTC) (F)     (DEG/KT/KT) (MB)    (FT/S) (FT/S/D)
WINYAH BAY       NOT AVBL
LAKE MURRAY      1020   46     280/  2/  3 1013.9F
ACE BASIN NERRS  0945   39        CALM     1015.0
FORT PULASKI     1048   48 60  340/  5/  6 1016.1R
SAPELO ISLAND    1000   44        CALM     1015.0

$$

ANZ835-935-AMZ111-154-330-350-352-354-370-450-454-472-251200-
...C-MAN AND BUOY OBSERVATIONS...

STATION/POSITION TIME  TEMP    WIND        PRES    WAVE   SWELL
                       AIR SEA DIR/SP/G            HT/PER HT/PER/DIR
                 (UTC) (F)     (DEG/KT/KT) (MB)    (FT/S) (FT/S/D)
BUOY 41004       1050   61 74  320/ 10/ 14 1014.0R   5/10   5/100/10
BUOY 41008       1050   60 65  350/  6/  8 1015.3R   3/10   3/ 90/10
FOLLY BEACH CMAN 1000   46     290/  5/  6 1015.3S
CAPERS NEARSHORE 1008   49 60  330/  6/ 10 1014.6R
FRIPP NEARSHORE  NOT AVBL


STATION/POSITION TIME  TEMP    WIND        PRES    WAVE   SWELL
                       AIR SEA DIR/SP/G            HT/PER HT/PER/DIR
                 (UTC) (F)     (DEG/KT/KT) (MB)    (FT/S) (FT/S/D)
5E ST. MARYS GA  1100      66                N/A     3/10   2/ 90/11
FRYING PAN BUOY  1050   61 71  330/ 12/ 16 1013.0S   6/ 9   5/120/ 9
BUOY 41025       1050   63 70  360/ 14/ 16 1011.2R   5/ 9   5/130/ 9
CAPE LOOKOUT NC  1000          330/ 10/ 11 1012.2R
BUOY 41002       1050   72 76  330/ 14/ 16 1009.8R   7/ 8   5/ 80/ 8
BUOY 41010       NOT AVBL
ST AUGUSTINE FL  1100   54 66  270/  6/  6 1016.3R


$$




USA.gov is the U.S. government's official web portal to all federal, state and local government web resources and services.